STARLINK-11525 [DTC] (62566 NORAD) Tracking and Keplerian Element Data

This shows tracking and keplerian element data for the satellite.

Feedback or suggestion? Click here.




ElementValue
Catalog62566
NameSTARLINK-11525 [DTC]
Epoch Orbit494
Epoch Day34.83335648
Epoch Year2025
RAAN27.4418
Inclination43.0014
Eccentricity0.0001534
Argument of Perigee273.6327
Mean Anonmoly139.9651
Mean Motion15.77989775
Decay Rate-0.00152095
L11 62566U 25006N 25034.83335648 -.00152095 00000+0 -88146-3 0 9995
L22 62566 43.0014 27.4418 0001534 273.6327 139.9651 15.77989775 4944



Live tracking and technical data element details for STARLINK-11525 [DTC] (NORAD 62566). STARLINK-11525 [DTC] can be tracked NOW for your location showing map with azimuth and elevation plus other details from your city location.







IsCatalogInMostPopularTable: catalog: 62566, numindb: 21
Update: records affected: 1



GetName: 62566 STARLINK-11525 [DTC]

Hit Count: updated at: Mon, 19 May 2025 01:25:40 GMT